TimeCDT,TemperatureF,Dew PointF,Humidity,Sea Level PressureIn,VisibilityMPH,Wind Direction,Wind SpeedMPH,Gust SpeedMPH,PrecipitationIn,Events,Conditions,WindDirDegrees,DateUTC
12:52 AM,63.0,54.0,72,29.60,10.0,West,11.5,-,N/A,,Overcast,270,2013-05-21 05:52:00
1:52 AM,62.1,55.0,78,29.61,10.0,West,8.1,-,N/A,,Overcast,270,2013-05-21 06:52:00
2:21 AM,60.8,55.4,82,29.62,10.0,West,9.2,-,N/A,,Overcast,270,2013-05-21 07:21:00
2:52 AM,61.0,53.1,75,29.61,10.0,West,12.7,-,N/A,,Overcast,280,2013-05-21 07:52:00
3:52 AM,59.0,51.1,75,29.61,10.0,West,12.7,19.6,N/A,,Partly Cloudy,260,2013-05-21 08:52:00
4:52 AM,57.9,50.0,75,29.62,10.0,West,6.9,-,N/A,,Scattered Clouds,280,2013-05-21 09:52:00
5:52 AM,57.0,48.0,72,29.65,10.0,West,6.9,-,N/A,,Partly Cloudy,270,2013-05-21 10:52:00
6:52 AM,57.0,48.0,72,29.66,10.0,WSW,5.8,-,N/A,,Mostly Cloudy,250,2013-05-21 11:52:00
7:52 AM,59.0,48.0,67,29.68,10.0,WSW,11.5,-,N/A,,Mostly Cloudy,240,2013-05-21 12:52:00
8:52 AM,59.0,46.9,64,29.67,10.0,WSW,12.7,-,N/A,,Mostly Cloudy,240,2013-05-21 13:52:00
9:52 AM,61.0,46.9,60,29.66,10.0,WSW,13.8,21.9,N/A,,Mostly Cloudy,250,2013-05-21 14:52:00
10:52 AM,61.0,46.0,58,29.67,10.0,WSW,13.8,-,N/A,,Mostly Cloudy,240,2013-05-21 15:52:00
11:52 AM,62.1,46.0,56,29.67,10.0,WSW,15.0,-,N/A,,Mostly Cloudy,250,2013-05-21 16:52:00
12:52 PM,62.1,46.0,56,29.68,10.0,SW,13.8,-,N/A,,Overcast,220,2013-05-21 17:52:00
1:52 PM,63.0,45.0,52,29.69,10.0,WSW,16.1,25.3,N/A,,Overcast,240,2013-05-21 18:52:00
2:52 PM,63.0,46.0,54,29.69,10.0,SW,12.7,20.7,N/A,,Overcast,230,2013-05-21 19:52:00
3:52 PM,63.0,46.0,54,29.68,10.0,WSW,10.4,20.7,N/A,,Overcast,250,2013-05-21 20:52:00
4:52 PM,63.0,46.9,56,29.68,10.0,SW,15.0,21.9,N/A,,Overcast,230,2013-05-21 21:52:00
5:52 PM,63.0,48.0,58,29.68,10.0,WSW,16.1,-,N/A,,Overcast,240,2013-05-21 22:52:00
6:52 PM,62.1,52.0,70,29.68,10.0,West,12.7,21.9,N/A,,Mostly Cloudy,270,2013-05-21 23:52:00
7:52 PM,59.0,52.0,78,29.68,10.0,WNW,17.3,23.0,N/A,,Mostly Cloudy,290,2013-05-22 00:52:00
8:06 PM,59.0,51.8,77,29.69,10.0,WNW,13.8,-,N/A,,Mostly Cloudy,290,2013-05-22 01:06:00
8:52 PM,59.0,52.0,78,29.70,10.0,West,12.7,21.9,N/A,,Overcast,280,2013-05-22 01:52:00
9:26 PM,57.2,51.8,82,29.72,10.0,WNW,15.0,18.4,N/A,,Mostly Cloudy,300,2013-05-22 02:26:00
9:52 PM,57.9,51.1,78,29.72,10.0,WNW,8.1,-,N/A,,Overcast,300,2013-05-22 02:52:00
10:17 PM,57.2,50.0,77,29.73,10.0,WNW,12.7,-,N/A,,Overcast,290,2013-05-22 03:17:00
10:52 PM,57.0,48.9,74,29.72,10.0,NW,13.8,-,N/A,,Overcast,320,2013-05-22 03:52:00
11:06 PM,55.4,48.2,77,29.72,10.0,NW,13.8,21.9,N/A,,Overcast,310,2013-05-22 04:06:00
11:52 PM,55.9,48.9,77,29.72,10.0,NW,11.5,-,N/A,,Overcast,310,2013-05-22 04:52:00